Wind_Speed
6 8 10 13 15 15 14 13 12 11 9 7 6 6 5 6 5 4 3 3 4 6 8 10 11 12 14 13 12 10 9 10 12 13 15 16 16 18 19 18 16 15 13
3 5 8 10 13 13 13 12 11 10 9 7 6 6 6 6 6 5 4 3 3 5 6 8 10 12 15 15 14 12 10 8 9 9 10 10 12 14 16 15 15 14 14
2 2 5 8 11 12 11 10 10 10 10 9 7 7 7 7 6 5 3 3 3 3 4 6 7 10 14 16 16 14 12 9 7 6 6 7 8 9 11 11 13 13 14
2 2 4 7 9 10 10 9 9 10 10 10 9 8 7 7 7 5 3 3 3 3 3 4 5 7 12 16 17 16 14 11 8 7 5 6 7 7 8 9 10 12 12
3 2 2 5 7 9 9 9 9 10 10 11 10 9 8 8 7 6 4 3 3 3 3 3 3 5 8 13 16 16 15 12 10 9 7 7 7 7 7 7 8 9 11
3 3 2 4 6 8 8 8 9 10 11 11 11 10 9 8 8 7 5 4 4 3 3 3 3 4 6 10 14 15 15 14 12 11 10 9 9 8 8 7 7 7 9
4 3 3 3 4 6 7 7 9 9 10 11 12 11 10 8 8 7 6 6 5 4 4 3 3 3 5 7 11 13 14 14 14 13 13 12 11 10 9 8 7 6 7
4 4 4 3 4 6 6 7 8 9 10 11 12 11 10 9 8 8 7 7 6 6 5 4 4 4 4 5 8 10 11 13 15 15 14 13 13 13 12 9 7 7 6
5 5 5 5 5 6 6 7 7 9 10 11 12 12 11 9 8 8 7 7 7 7 7 6 6 6 7 7 7 9 11 11 12 13 13 13 13 14 13 11 8 7 7
6 7 7 7 6 6 7 7 7 8 9 11 12 12 11 10 9 8 8 8 8 8 8 7 7 8 9 9 9 9 11 11 11 11 12 12 10 11 12 10 8 6 7
6 8 8 8 8 8 8 8 8 8 9 10 10 11 11 10 9 8 8 8 8 8 8 8 8 9 10 11 11 12 12 12 12 12 12 11 10 9 9 9 8 7 7
8 9 10 10 10 10 10 10 10 9 9 9 10 10 11 10 9 9 8 8 8 8 8 9 9 9 10 11 13 14 15 14 13 14 14 13 12 11 9 9 9 9 9
11 11 12 12 12 12 12 12 11 10 10 9 9 9 9 10 9 9 8 8 8 8 9 9 9 9 10 12 14 16 16 16 16 16 16 16 15 14 13 12 11 11 10
13 13 14 15 15 14 14 13 12 12 10 9 9 9 9 9 10 10 9 9 9 9 8 9 9 10 11 12 14 15 16 17 18 18 19 19 18 17 16 15 14 13 12
14 14 15 16 16 16 15 14 14 13 12 10 9 9 8 9 9 10 10 11 10 9 8 9 10 11 12 13 13 14 14 15 17 18 19 20 20 20 19 18 16 15 14
15 15 15 16 16 16 16 15 14 14 13 11 10 9 9 9 9 9 10 11 11 10 9 10 10 11 12 13 14 14 14 14 16 17 19 20 21 21 21 20 19 18 16
15 16 16 16 16 16 15 15 15 15 14 13 12 11 10 9 9 10 11 11 12 11 11 11 11 12 12 13 15 15 14 14 14 16 17 18 20 21 21 21 20 19 18
18 17 16 15 15 15 15 15 15 15 15 14 13 12 12 11 10 11 12 12 12 12 12 12 13 13 13 14 15 15 15 14 14 15 16 17 18 20 20 20 20 19 18
20 19 17 16 16 16 15 15 15 15 15 15 15 14 13 13 12 12 13 13 13 13 13 13 13 14 15 15 16 16 15 15 15 15 15 16 17 18 19 19 18 18 17
22 20 19 18 17 17 17 17 16 16 16 16 16 15 15 15 15 15 15 15 15 15 15 15 15 15 15 16 16 16 16 16 16 16 15 16 16 17 18 18 18 17 17
24 22 21 20 19 19 19 19 18 17 17 17 18 17 17 17 17 17 17 17 17 18 18 17 17 16 16 16 17 17 17 16 16 16 15 15 16 17 18 18 19 18 18
25 24 23 23 22 21 21 21 20 19 18 17 17 17 17 17 18 18 19 20 20 21 20 20 20 18 17 17 18 18 18 18 17 16 15 15 15 16 18 19 20 20 20
27 26 26 25 24 23 23 22 21 20 18 18 17 18 18 19 19 20 22 23 23 23 23 22 22 20 19 19 19 18 19 20 19 18 16 15 14 14 16 19 20 21 21
28 27 28 28 27 26 25 23 22 21 20 19 18 18 19 20 21 22 23 24 25 25 25 25 25 23 22 21 21 20 20 20 21 20 18 16 14 14 15 17 18 20 21
30 30 29 29 28 27 24 23 22 20 20 19 19 20 21 22 23 24 25 25 25 26 26 27 26 25 24 23 21 21 20 20 21 21 20 18 16 14 14 15 16 18 20
32 32 31 29 27 26 23 21 21 21 21 21 21 22 23 24 24 25 25 25 25 25 25 27 28 28 26 24 23 21 21 20 20 22 22 20 18 16 14 15 15 16 18
Wind_Direction
30 32 30 27 25 25 27 28 27 23 19 15 11 7 5 6 2 356 333 303 272 259 253 251 249 239 231 227 223 219 216 213 213 207 209 215 219 221 223 223 222 224 225
6 22 25 23 22 22 24 25 24 20 15 10 2 355 356 358 357 353 340 319 294 272 261 259 249 234 227 224 222 218 218 212 210 202 203 205 211 215 215 216 219 222 222
311 359 15 18 19 21 23 23 20 17 14 9 0 352 349 349 349 348 341 323 305 289 273 265 251 232 223 222 219 216 216 212 212 206 207 203 204 207 212 215 218 218 218
268 306 5 12 17 21 22 21 17 12 11 8 3 357 351 346 342 339 336 332 316 304 287 278 257 229 221 219 216 215 216 219 223 224 221 206 201 205 203 205 209 211 214
252 262 344 4 12 18 20 17 13 10 9 8 6 2 358 350 342 335 326 322 319 313 300 284 270 231 218 216 214 215 217 222 225 229 232 225 220 213 203 203 206 209 210
245 246 308 353 5 11 13 12 8 6 7 8 9 7 3 357 348 337 323 311 308 304 300 284 270 232 216 214 215 215 219 223 229 235 236 234 232 221 207 202 202 206 209
248 243 273 323 348 358 3 5 2 2 4 6 9 11 9 3 353 341 326 308 299 295 289 281 268 237 216 215 216 219 223 228 231 235 236 238 236 226 213 204 204 206 205
252 244 257 283 318 339 344 350 354 357 1 4 7 10 9 4 356 342 328 311 297 292 288 276 258 239 222 215 213 213 220 228 231 236 239 239 239 232 218 210 210 215 215
248 245 251 267 291 315 329 336 345 353 357 1 4 5 5 3 355 343 329 313 300 291 285 273 253 240 230 223 217 217 223 226 230 234 233 234 237 232 219 214 212 219 226
250 248 248 259 275 294 311 322 332 344 351 355 1 4 4 2 355 344 333 320 304 291 283 274 257 245 237 231 224 222 226 229 228 231 232 234 235 229 216 214 217 226 234
259 249 248 254 267 282 295 307 318 328 340 347 353 359 2 4 358 348 339 330 314 295 283 277 265 252 243 236 232 230 231 232 230 230 233 235 232 225 221 224 232 240 247
276 256 250 254 265 275 284 292 303 313 323 334 342 351 359 3 360 353 343 338 327 307 289 279 272 262 251 241 236 236 237 238 236 233 233 233 233 232 234 239 244 248 252
285 271 262 261 266 272 279 284 291 300 308 318 328 340 350 357 357 353 346 342 334 320 301 285 277 268 257 247 242 240 240 240 238 236 236 236 237 239 242 246 248 251 252
281 272 268 266 268 273 277 281 284 289 297 305 312 324 336 348 354 353 350 344 339 325 310 293 280 270 262 255 248 245 243 241 240 239 238 239 241 243 245 246 249 251 250
280 272 268 266 267 271 275 277 280 282 286 293 299 308 321 333 342 346 344 340 340 331 317 299 282 273 268 264 256 248 244 242 242 241 240 240 241 243 244 246 248 248 248
280 273 267 267 266 266 269 272 276 279 281 284 289 292 303 315 324 332 335 334 335 332 321 305 288 277 270 265 259 253 248 246 244 242 241 241 242 243 243 245 247 247 246
282 274 268 265 266 266 267 271 275 277 278 280 284 286 289 298 306 317 324 326 327 326 322 313 298 284 270 261 259 255 251 249 248 245 244 243 242 242 242 243 245 245 245
284 278 272 266 265 265 267 270 274 276 278 279 280 283 282 282 292 299 306 313 314 314 313 308 299 288 275 263 256 254 251 248 249 248 247 245 243 241 240 241 242 243 243
286 281 276 270 268 267 267 268 271 274 277 277 277 279 281 279 284 287 290 299 299 300 303 301 295 288 280 269 257 252 250 249 250 249 250 249 245 240 238 238 239 241 241
284 282 279 274 270 269 268 268 270 273 274 274 277 277 276 275 278 280 279 288 288 289 292 293 291 286 280 272 263 256 250 248 252 252 253 250 246 239 235 233 234 237 236
282 281 279 276 273 271 271 271 271 272 273 274 277 277 272 273 276 277 276 280 279 282 284 284 282 281 275 269 264 259 252 246 248 253 255 250 243 236 231 230 231 231 229
278 279 277 276 274 273 273 274 274 274 273 273 274 276 274 274 275 275 276 276 276 277 276 276 277 276 271 266 263 261 256 247 244 248 252 251 244 235 230 229 228 227 225
273 274 274 274 274 272 272 272 274 275 274 273 274 275 276 275 275 275 275 275 275 273 270 270 271 268 264 261 260 260 259 252 245 243 245 246 243 236 231 229 227 225 224
265 265 266 268 270 270 272 273 275 276 276 276 275 275 276 277 277 277 276 276 274 271 268 268 267 263 261 257 256 258 259 253 246 241 239 238 236 233 231 229 226 225 224
254 254 255 259 263 265 269 273 276 276 278 278 279 279 280 280 279 278 277 275 273 270 267 266 263 259 257 254 254 257 257 253 244 237 236 235 232 229 227 228 226 225 225
247 249 251 253 256 259 264 270 274 275 277 279 280 281 282 282 280 279 277 275 272 269 266 262 260 257 253 251 250 253 253 250 242 235 233 231 230 226 224 225 225 225 226
Height
5895 5894 5894 5892 5891 5890 5889 5888 5887 5886 5885 5884 5884 5883 5882 5881 5881 5880 5879 5879 5879 5878 5878 5878 5878 5879 5880 5881 5883 5884 5885 5885 5885 5886 5887 5888 5889 5890 5891 5892 5893 5894 5896
5895 5895 5895 5894 5892 5891 5890 5889 5888 5887 5886 5885 5884 5883 5882 5881 5881 5880 5879 5878 5878 5877 5877 5877 5876 5877 5878 5879 5882 5883 5884 5885 5885 5886 5886 5887 5888 5888 5889 5890 5891 5893 5894
5895 5895 5895 5894 5893 5892 5891 5890 5889 5888 5886 5885 5884 5883 5882 5881 5880 5879 5878 5878 5877 5876 5876 5875 5875 5875 5876 5878 5880 5882 5884 5884 5885 5886 5886 5886 5887 5887 5888 5888 5890 5891 5893
5894 5895 5895 5895 5894 5893 5892 5891 5890 5888 5887 5886 5884 5883 5882 5881 5880 5879 5878 5877 5876 5876 5875 5875 5874 5874 5875 5876 5878 5881 5882 5884 5885 5885 5886 5887 5887 5887 5887 5888 5889 5890 5891
5893 5894 5894 5894 5894 5893 5892 5891 5890 5889 5887 5886 5884 5883 5882 5881 5879 5878 5877 5877 5876 5875 5875 5874 5874 5874 5874 5875 5877 5879 5881 5883 5884 5885 5886 5887 5887 5887 5888 5888 5888 5889 5890
5893 5893 5894 5894 5894 5893 5893 5892 5890 5889 5888 5886 5885 5883 5882 5880 5879 5878 5877 5876 5875 5875 5874 5874 5874 5874 5874 5875 5877 5879 5880 5882 5883 5884 5885 5886 5887 5887 5888 5888 5888 5889 5889
5892 5893 5893 5894 5894 5893 5893 5892 5890 5889 5888 5886 5885 5883 5881 5880 5878 5877 5876 5875 5875 5874 5874 5874 5874 5874 5874 5875 5876 5878 5880 5881 5882 5883 5884 5885 5886 5886 5887 5887 5888 5888 5889
5892 5892 5893 5893 5893 5893 5892 5891 5890 5889 5887 5886 5884 5882 5881 5879 5878 5876 5875 5874 5874 5873 5873 5873 5874 5874 5874 5875 5876 5877 5878 5879 5880 5881 5882 5884 5885 5885 5886 5886 5887 5888 5889
5891 5892 5892 5893 5893 5893 5892 5891 5890 5889 5887 5885 5884 5882 5880 5879 5877 5876 5874 5873 5873 5872 5872 5872 5873 5873 5874 5874 5875 5876 5877 5878 5879 5880 5881 5882 5883 5883 5884 5885 5886 5887 5888
5891 5891 5891 5892 5892 5892 5891 5891 5889 5888 5886 5885 5883 5881 5880 5878 5877 5875 5874 5873 5872 5871 5871 5871 5871 5872 5873 5873 5875 5875 5876 5877 5878 5879 5880 5881 5881 5882 5883 5884 5885 5886 5887
5890 5890 5890 5891 5891 5891 5891 5890 5889 5887 5886 5884 5882 5880 5879 5877 5876 5874 5873 5872 5871 5870 5870 5870 5870 5870 5871 5872 5873 5874 5874 5875 5877 5878 5879 5880 5880 5881 5882 5883 5884 5885 5886
5890 5890 5889 5889 5889 5889 5889 5888 5888 5886 5885 5883 5881 5879 5878 5876 5875 5873 5872 5871 5870 5869 5868 5868 5868 5869 5869 5870 5871 5872 5873 5874 5875 5876 5877 5878 5879 5880 5881 5882 5883 5883 5884
5889 5888 5888 5887 5887 5887 5887 5886 5886 5885 5884 5882 5880 5878 5876 5875 5874 5872 5871 5870 5869 5868 5867 5867 5867 5867 5867 5868 5868 5869 5871 5872 5873 5874 5875 5876 5878 5879 5880 5880 5881 5882 5882
5888 5887 5886 5885 5885 5885 5884 5884 5883 5882 5882 5880 5879 5877 5875 5874 5872 5871 5869 5869 5868 5866 5866 5865 5865 5865 5865 5865 5866 5866 5868 5869 5870 5871 5873 5874 5875 5876 5877 5878 5879 5880 5880
5887 5885 5884 5883 5882 5882 5881 5881 5880 5879 5879 5878 5877 5875 5873 5872 5871 5869 5868 5867 5866 5865 5864 5863 5863 5863 5862 5862 5863 5864 5865 5866 5867 5868 5869 5870 5871 5873 5874 5875 5876 5877 5878
5884 5883 5881 5880 5879 5879 5878 5877 5877 5876 5875 5874 5874 5873 5871 5870 5869 5868 5867 5865 5864 5863 5862 5861 5860 5861 5860 5860 5860 5861 5862 5863 5864 5865 5866 5867 5868 5869 5870 5871 5872 5874 5875
5881 5880 5879 5877 5876 5875 5874 5873 5873 5872 5871 5871 5870 5870 5869 5868 5867 5866 5865 5863 5861 5860 5859 5858 5857 5857 5858 5857 5857 5858 5859 5860 5860 5861 5862 5863 5864 5865 5866 5867 5868 5870 5871
5877 5876 5875 5874 5873 5872 5871 5870 5869 5868 5868 5867 5867 5866 5865 5865 5864 5863 5862 5861 5859 5858 5857 5856 5855 5854 5854 5854 5854 5854 5855 5856 5857 5858 5858 5859 5860 5861 5862 5863 5865 5866 5867
5871 5871 5871 5871 5869 5868 5867 5866 5865 5864 5864 5863 5863 5862 5861 5861 5860 5860 5859 5858 5857 5855 5854 5853 5852 5851 5850 5850 5850 5851 5852 5853 5853 5854 5855 5855 5856 5857 5858 5860 5861 5863 5864
5866 5866 5866 5866 5865 5864 5863 5863 5862 5861 5860 5860 5859 5858 5857 5856 5856 5855 5855 5854 5853 5852 5850 5849 5849 5847 5847 5846 5846 5847 5849 5849 5849 5850 5851 5852 5852 5853 5855 5856 5857 5859 5860
5860 5860 5860 5860 5860 5859 5859 5858 5857 5857 5856 5855 5854 5853 5853 5852 5851 5850 5850 5849 5848 5847 5846 5845 5844 5843 5843 5843 5842 5843 5844 5846 5846 5847 5847 5848 5848 5849 5851 5852 5854 5855 5857
5854 5854 5854 5854 5854 5853 5853 5853 5852 5852 5851 5850 5849 5848 5847 5847 5846 5845 5844 5843 5843 5842 5841 5840 5839 5839 5839 5839 5838 5838 5839 5842 5843 5843 5844 5844 5845 5846 5847 5848 5849 5851 5853
5847 5847 5847 5847 5847 5847 5847 5847 5846 5846 5845 5845 5845 5844 5843 5842 5840 5839 5838 5837 5837 5836 5835 5834 5834 5834 5834 5834 5834 5834 5834 5836 5838 5840 5840 5841 5841 5842 5843 5844 5846 5847 5849
5839 5840 5840 5840 5840 5841 5841 5841 5841 5840 5840 5840 5839 5838 5837 5836 5835 5833 5832 5831 5830 5830 5829 5828 5828 5828 5828 5828 5829 5829 5830 5831 5833 5835 5836 5837 5838 5839 5839 5840 5842 5844 5846
5831 5832 5833 5833 5833 5834 5834 5835 5835 5834 5834 5834 5833 5832 5831 5830 5828 5827 5826 5825 5824 5823 5822 5822 5822 5821 5821 5822 5823 5824 5824 5826 5827 5830 5832 5833 5835 5835 5836 5837 5839 5841 5843
5823 5825 5825 5825 5827 5828 5829 5829 5829 5829 5829 5828 5827 5826 5825 5823 5822 5820 5819 5818 5817 5816 5816 5815 5815 5814 5814 5816 5817 5818 5819 5820 5822 5824 5827 5829 5831 5832 5833 5834 5836 5838 5839